Starlink 31462

operational
NORAD ID: 59466 Int'l Des: 2024-068 Owner: SPXS Country: US Constellation: starlink
LEOCIRCULAR

About Starlink 31462

Description loading...

Live Position

Loading 3D Globe...

Upcoming Passes

Altitude History

Altitude vs Time

uPlot chart will show altitude changes over time

Two-Line Element Set

1 59466U 24068M 25256.88500308 .00000311 00000-0 20833-4 0 9997
2 59466 43.0047 312.9251 0001370 269.4949 90.5746 15.27578069 81489
Epoch: Sep 13, 2025 • Age: 53 hours

Current Status

Altitude 482.1 km
Velocity 7.63 km/s
Sub-Earth Point 9.66°N, 84.35°W
Launch Date Apr 10, 2024
Age 1.4 years
Type internet

Technical Details

Classification Payload
Mass 730.00 kg
Dry Mass 700.00 kg
Total Mass 730.00 kg
Length 0.30 m
Diameter 4.10 m
Span 29.00 m
Shape Box + pan
Manufacturer SPXS
Bus Type Starlink V2M
Phase Status In Orbit
Owner/State SPXS/US

Large Constellations

Loading constellations...